2018-034H (43338 NORAD) Tracking and Keplerian Element Data

This shows tracking and keplerian element data for the satellite.

Feedback or suggestion? Click here.




ElementValue
Catalog43338
Name2018-034H
Epoch Orbit380
Epoch Day130.20690614
Epoch Year2018
RAAN135.5375
Inclination63.4029
Eccentricity0.0011835
Argument of Perigee31.1971
Mean Anonmoly328.9755
Mean Motion13.44576034
Decay Rate-1.671E-05
L11 43338U 18034H 18130.20690614 -.00001671 00000-0 -27025-2 0 9993
L22 43338 63.4029 135.5375 0011835 31.1971 328.9755 13.44576034 3803



Live tracking and technical data element details for 2018-034H (NORAD 43338). 2018-034H can be tracked NOW for your location showing map with azimuth and elevation plus other details from your city location.







IsCatalogInMostPopularTable: catalog: 43338, numindb: 416
Update: records affected: 1



GetName: 43338 2018-034H

Hit Count: updated at: Fri, 16 May 2025 11:58:28 GMT